Regional Weather Roundup
Issued by NWS New Orleans/Baton Rouge, LA

Home | Current Version | Previous Version | Text Only | Print | Product List | Glossary On
Versions: 1 2 3 4 5 6 7 8 9 10 11 12 13 14 15 16 17 18 19 20 21 22 23 24 25 26 27 28 29 30 31 32 33 34 35 36 37 38 39 40 41 42 43 44 45 46 47 48 49 50
469
ASUS44 KLIX 220005
RWRLIX
NEW ORLEANS REGIONAL WEATHER ROUNDUP
NATIONAL WEATHER SERVICE NEW ORLEANS LA
600 PM CST SUN DEC 21 2014

NOTE: "FAIR" INDICATES FEW OR NO CLOUDS BELOW 12,000 FEET WITH NO
      SIGNIFICANT WEATHER AND/OR OBSTRUCTIONS TO VISIBILITY.
      SKY/WX - SKY CONDITION AND SIGNIFICANT WEATHER.
      TMP - AIR TEMPERATURE.     DP    - DEWPOINT TEMPERATURE.
      RH  - RELATIVE HUMIDITY.   PRES  - PRESSURE.
      HI  - HEAT INDEX.          WCI   - WIND CHILL INDEX.

*  THESE STATIONS ARE NOT NWS OR FAA STATIONS AND ARE NOT UNDER
   NWS QUALITY CONTROL.

LAZ038-040-048-061>063-065>067-069-220100-
SOUTHEAST LOUISIANA

CITY           SKY/WX    TMP DP  RH WIND       PRES   REMARKS
N.O. AUDUBON     N/A     56  53  89 MISG        N/A
6HR MIN TEMP:  55; 6HR MAX TEMP:  60;

N.O. INTL ARPT CLOUDY    55  51  86 NE7       29.99F
6HR MIN TEMP:  55; 6HR MAX TEMP:  58;

N.O. LAKEFRONT MOCLDY    56  51  84 E6        30.00F
6HR MIN TEMP:  56; 6HR MAX TEMP:  58;

N.O. DOWNTOWN* MOCLDY    55  48  76 NE5       29.99F
6HR MIN TEMP:  55; 6HR MAX TEMP:  59;

SLIDELL        MOCLDY    53  50  89 CALM      29.99R
6HR MIN TEMP:  53; 6HR MAX TEMP:  60;

BATON ROUGE    CLOUDY    56  50  80 E5        29.97F
6HR MIN TEMP:  55; 6HR MAX TEMP:  60;

BOOTHVILLE     CLOUDY    56  55  97 VRB3      30.01R FOG
6HR MIN TEMP:  56; 6HR MAX TEMP:  60;

BELLE CHASSE   CLOUDY    56  53  90 NE8       29.98F
6HR MIN TEMP:  55; 6HR MAX TEMP:  60;

BOGALUSA*        N/A     59  51  74 CALM      30.01S
6HR MIN TEMP:  58; 6HR MAX TEMP:  63;

GALLIANO*      CLOUDY    57  55  91 MISG      29.98F
6HR MIN TEMP:  57; 6HR MAX TEMP:  60;

NEW ROADS*       N/A     55  49  82 CALM      29.98F
6HR MIN TEMP:  52; 6HR MAX TEMP:  59;

GONZALES*        N/A     55  55 100 CALM      29.98F
6HR MIN TEMP:  55; 6HR MAX TEMP:  60;

HAMMOND*       NOT AVBL
HOUMA*         PTCLDY    54  52  94 NE5       29.97F
PORT FOURCHON* PTCLDY    59  55  88 NE8       30.00S

$$

MSZ070-080>082-220100-
SOUTHERN MISSISSIPPI

CITY           SKY/WX    TMP DP  RH WIND       PRES   REMARKS
MCCOMB         CLOUDY    56  50  80 SE3       29.99S
6HR MIN TEMP:  54; 6HR MAX TEMP:  59;

GULFPORT       CLOUDY    58  53  84 NE7       29.99S
6HR MIN TEMP:  57; 6HR MAX TEMP:  60;

BILOXI         CLOUDY    57  55  91 NE8       29.99F
6HR MIN TEMP:  57; 6HR MAX TEMP:  59;

PASCAGOULA     CLOUDY    57  53  86 N6        30.01S
6HR MIN TEMP:  57; 6HR MAX TEMP:  58;

STENNIS ARPT*  PTCLDY    52  48  87 CALM      30.00S

$$

COASTAL OBSERVATIONS
LAKE AND NEARSHORE STATIONS

STATION/POSITION TIME  TEMP    WIND        PRES    WAVE
                       AIR SEA DIR/SP/G            HT/PER
                 (UTC) (F)     (DEG/KT/KT) (MB)    (FT/S)
PASCAGOULA       0000   57      20/  6/  8 1015.3
WAVELAND YACHT   0000   55      20/  1/  2 1014.9
GRAND ISLE       0000   58 60   70/  9/ 11 1015.3
SOUTHWEST PASS   0000   57                 1015.8
NEW CANAL        0000   55 56   70/  4/  5 1015.8
SHELL BEACH      0000   55 57   60/  6/  9 1015.7

OFFSHORE STATIONS

STATION/POSITION TIME  TEMP    WIND        PRES    WAVE
                       AIR SEA DIR/SP/G            HT/PER
                 (UTC) (F)     (DEG/KT/KT) (MB)    (FT/S)
64 S DAUPHIN ISL 0000   67 74   50/ 12/ 14 1014.9    2/ 6

$$




USA.gov is the U.S. government's official web portal to all federal, state and local government web resources and services.